Year,Month,Day,Hour,Minute,Value (Times are PST for temperature in C)
2007,09,23,00,00,7.30
2007,09,23,00,01,7.30
2007,09,23,00,02,7.30
2007,09,23,00,03,7.30
2007,09,23,00,04,7.30
2007,09,23,00,05,7.40
2007,09,23,00,06,7.40
2007,09,23,00,07,7.40
2007,09,23,00,08,7.40
2007,09,23,00,09,7.40
2007,09,23,00,10,7.40
2007,09,23,00,11,7.40
2007,09,23,00,12,7.40
2007,09,23,00,13,7.40
2007,09,23,00,14,7.40
2007,09,23,00,15,7.40
2007,09,23,00,16,7.50
2007,09,23,00,17,7.50
2007,09,23,00,18,7.50
2007,09,23,00,19,7.50
2007,09,23,00,20,7.50
2007,09,23,00,21,7.50
2007,09,23,00,22,7.50
2007,09,23,00,23,7.50
2007,09,23,00,24,7.50
2007,09,23,00,25,7.50
2007,09,23,00,26,7.50
2007,09,23,00,27,7.50
2007,09,23,00,28,7.60
2007,09,23,00,29,7.60
2007,09,23,00,30,7.60
2007,09,23,00,31,7.60
2007,09,23,00,32,7.60
2007,09,23,00,33,7.60
2007,09,23,00,34,7.60
2007,09,23,00,35,7.60
2007,09,23,00,36,7.60
2007,09,23,00,37,7.60
2007,09,23,00,38,7.60
2007,09,23,00,39,7.50
2007,09,23,00,40,7.50
2007,09,23,00,41,7.50
2007,09,23,00,42,7.50
2007,09,23,00,43,7.50
2007,09,23,00,44,7.50
2007,09,23,00,45,7.50
2007,09,23,00,46,7.40
2007,09,23,00,47,7.40
2007,09,23,00,48,7.40
2007,09,23,00,49,7.40
2007,09,23,00,50,7.40
2007,09,23,00,51,7.40
2007,09,23,00,52,7.30
2007,09,23,00,53,7.30
2007,09,23,00,54,7.30
2007,09,23,00,55,7.30
2007,09,23,00,56,7.30
2007,09,23,00,57,7.30
2007,09,23,00,58,7.30
2007,09,23,00,59,7.30
2007,09,23,01,00,7.30
2007,09,23,01,01,7.30
2007,09,23,01,02,7.30
2007,09,23,01,03,7.30
2007,09,23,01,04,7.30
2007,09,23,01,05,7.20
2007,09,23,01,06,7.20
2007,09,23,01,07,7.20
2007,09,23,01,08,7.20
2007,09,23,01,09,7.10
2007,09,23,01,10,7.10
2007,09,23,01,11,7.10
2007,09,23,01,12,7.10
2007,09,23,01,13,7.10
2007,09,23,01,14,7.10
2007,09,23,01,15,7.10
2007,09,23,01,16,7.10
2007,09,23,01,17,7.00
2007,09,23,01,18,7.00
2007,09,23,01,19,7.00
2007,09,23,01,20,7.00
2007,09,23,01,21,7.00
2007,09,23,01,22,7.00
2007,09,23,01,23,7.00
2007,09,23,01,24,7.00
2007,09,23,01,25,6.90
2007,09,23,01,26,6.90
2007,09,23,01,27,6.90
2007,09,23,01,28,6.90
2007,09,23,01,29,6.90
2007,09,23,01,30,6.90
2007,09,23,01,31,6.90
2007,09,23,01,32,6.90
2007,09,23,01,33,6.90
2007,09,23,01,34,6.90
2007,09,23,01,35,6.90
2007,09,23,01,36,6.80
2007,09,23,01,37,6.90
2007,09,23,01,38,6.90
2007,09,23,01,39,6.90
2007,09,23,01,40,6.90
2007,09,23,01,41,6.90
2007,09,23,01,42,6.90
2007,09,23,01,43,6.90
2007,09,23,01,44,6.90
2007,09,23,01,45,7.00
2007,09,23,01,46,7.00
2007,09,23,01,47,7.00
2007,09,23,01,48,7.00
2007,09,23,01,49,7.00
2007,09,23,01,50,7.00
2007,09,23,01,51,7.00
2007,09,23,01,52,7.10
2007,09,23,01,53,7.10
2007,09,23,01,54,7.10
2007,09,23,01,55,7.20
2007,09,23,01,56,7.20
2007,09,23,01,57,7.20
2007,09,23,01,58,7.30
2007,09,23,01,59,7.30
2007,09,23,02,00,7.30
2007,09,23,02,01,7.30
2007,09,23,02,02,7.30
2007,09,23,02,03,7.30
2007,09,23,02,04,7.40
2007,09,23,02,05,7.40
2007,09,23,02,06,7.40
2007,09,23,02,07,7.40
2007,09,23,02,08,7.40
2007,09,23,02,09,7.50
2007,09,23,02,10,7.50
2007,09,23,02,11,7.50
2007,09,23,02,12,7.50
2007,09,23,02,13,7.60
2007,09,23,02,14,7.60
2007,09,23,02,15,7.60
2007,09,23,02,16,7.70
2007,09,23,02,17,7.70
2007,09,23,02,18,7.70
2007,09,23,02,19,7.80
2007,09,23,02,20,7.80
2007,09,23,02,21,7.80
2007,09,23,02,22,7.80
2007,09,23,02,23,7.80
2007,09,23,02,24,7.80
2007,09,23,02,25,7.90
2007,09,23,02,26,7.90
2007,09,23,02,27,7.90
2007,09,23,02,28,7.90
2007,09,23,02,29,7.90
2007,09,23,02,30,8.00
2007,09,23,02,31,8.00
2007,09,23,02,32,8.10
2007,09,23,02,33,8.10
2007,09,23,02,34,8.10
2007,09,23,02,35,8.10
2007,09,23,02,36,8.10
2007,09,23,02,37,8.00
2007,09,23,02,38,8.00
2007,09,23,02,39,8.00
2007,09,23,02,40,8.00
2007,09,23,02,41,7.90
2007,09,23,02,42,7.90
2007,09,23,02,43,7.90
2007,09,23,02,44,7.90
2007,09,23,02,45,7.80
2007,09,23,02,46,7.80
2007,09,23,02,47,7.80
2007,09,23,02,48,7.80
2007,09,23,02,49,7.80
2007,09,23,02,50,7.80
2007,09,23,02,51,7.70
2007,09,23,02,52,7.70
2007,09,23,02,53,7.70
2007,09,23,02,54,7.70
2007,09,23,02,55,7.70
2007,09,23,02,56,7.70
2007,09,23,02,57,7.70
2007,09,23,02,58,7.70
2007,09,23,02,59,7.70
2007,09,23,03,00,7.70
2007,09,23,03,01,7.60
2007,09,23,03,02,7.60
2007,09,23,03,03,7.60
2007,09,23,03,04,7.50
2007,09,23,03,05,7.50
2007,09,23,03,06,7.50
2007,09,23,03,07,7.50
2007,09,23,03,08,7.50
2007,09,23,03,09,7.40
2007,09,23,03,10,7.40
2007,09,23,03,11,7.40
2007,09,23,03,12,7.40
2007,09,23,03,13,7.30
2007,09,23,03,14,7.30
2007,09,23,03,15,7.30
2007,09,23,03,16,7.30
2007,09,23,03,17,7.30
2007,09,23,03,18,7.30
2007,09,23,03,19,7.30
2007,09,23,03,20,7.30
2007,09,23,03,21,7.30
2007,09,23,03,22,7.30
2007,09,23,03,23,7.30
2007,09,23,03,24,7.30
2007,09,23,03,25,7.20
2007,09,23,03,26,7.20
2007,09,23,03,27,7.20
2007,09,23,03,28,7.20
2007,09,23,03,29,7.20
2007,09,23,03,30,7.20
2007,09,23,03,31,7.20
2007,09,23,03,32,7.20
2007,09,23,03,33,7.20
2007,09,23,03,34,7.20
2007,09,23,03,35,7.20
2007,09,23,03,36,7.10
2007,09,23,03,37,7.10
2007,09,23,03,38,7.10
2007,09,23,03,39,7.10
2007,09,23,03,40,7.10
2007,09,23,03,41,7.10
2007,09,23,03,42,7.20
2007,09,23,03,43,7.10
2007,09,23,03,44,7.10
2007,09,23,03,45,7.10
2007,09,23,03,46,7.10
2007,09,23,03,47,7.10
2007,09,23,03,48,7.10
2007,09,23,03,49,7.10
2007,09,23,03,50,7.10
2007,09,23,03,51,7.10
2007,09,23,03,52,7.10
2007,09,23,03,53,7.10
2007,09,23,03,54,7.10
2007,09,23,03,55,7.10
2007,09,23,03,56,7.10
2007,09,23,03,57,7.00
2007,09,23,03,58,7.00
2007,09,23,03,59,7.00
2007,09,23,04,00,7.00
2007,09,23,04,01,7.00
2007,09,23,04,02,7.00
2007,09,23,04,03,7.00
2007,09,23,04,04,7.00
2007,09,23,04,05,7.00
2007,09,23,04,06,6.90
2007,09,23,04,07,6.90
2007,09,23,04,08,6.90
2007,09,23,04,09,6.90
2007,09,23,04,10,6.90
2007,09,23,04,11,6.90
2007,09,23,04,12,6.90
2007,09,23,04,13,6.90
2007,09,23,04,14,6.80
2007,09,23,04,15,6.80
2007,09,23,04,16,6.80
2007,09,23,04,17,6.80
2007,09,23,04,18,6.80
2007,09,23,04,19,6.80
2007,09,23,04,20,6.80
2007,09,23,04,21,6.80
2007,09,23,04,22,6.80
2007,09,23,04,23,6.80
2007,09,23,04,24,6.80
2007,09,23,04,25,6.80
2007,09,23,04,26,6.80
2007,09,23,04,27,6.80
2007,09,23,04,28,6.80
2007,09,23,04,29,6.80
2007,09,23,04,30,6.80
2007,09,23,04,31,6.80
2007,09,23,04,32,6.80
2007,09,23,04,33,6.80
2007,09,23,04,34,6.80
2007,09,23,04,35,6.80
2007,09,23,04,36,6.80
2007,09,23,04,37,6.80
2007,09,23,04,38,6.80
2007,09,23,04,39,6.80
2007,09,23,04,40,6.80
2007,09,23,04,41,6.80
2007,09,23,04,42,6.80
2007,09,23,04,43,6.80
2007,09,23,04,44,6.70
2007,09,23,04,45,6.70
2007,09,23,04,46,6.70
2007,09,23,04,47,6.70
2007,09,23,04,48,6.70
2007,09,23,04,49,6.70
2007,09,23,04,50,6.70
2007,09,23,04,51,6.70
2007,09,23,04,52,6.70
2007,09,23,04,53,6.70
2007,09,23,04,54,6.70
2007,09,23,04,55,6.70
2007,09,23,04,56,6.70
2007,09,23,04,57,6.70
2007,09,23,04,58,6.70
2007,09,23,04,59,6.80
2007,09,23,05,00,6.80
2007,09,23,05,01,6.80
2007,09,23,05,02,6.80
2007,09,23,05,03,6.80
2007,09,23,05,04,6.80
2007,09,23,05,05,6.80
2007,09,23,05,06,6.90
2007,09,23,05,07,6.90
2007,09,23,05,08,6.90
2007,09,23,05,09,6.90
2007,09,23,05,10,6.90
2007,09,23,05,11,6.90
2007,09,23,05,12,7.00
2007,09,23,05,13,7.00
2007,09,23,05,14,7.00
2007,09,23,05,15,7.00
2007,09,23,05,16,7.00
2007,09,23,05,17,7.00
2007,09,23,05,18,7.00
2007,09,23,05,19,7.00
2007,09,23,05,20,7.00
2007,09,23,05,21,7.10
2007,09,23,05,22,7.10
2007,09,23,05,23,7.10
2007,09,23,05,24,7.10
2007,09,23,05,25,7.10
2007,09,23,05,26,7.10
2007,09,23,05,27,7.10
2007,09,23,05,28,7.10
2007,09,23,05,29,7.10
2007,09,23,05,30,7.10
2007,09,23,05,31,7.20
2007,09,23,05,32,7.20
2007,09,23,05,33,7.20
2007,09,23,05,34,7.20
2007,09,23,05,35,7.20
2007,09,23,05,36,7.20
2007,09,23,05,37,7.20
2007,09,23,05,38,7.10
2007,09,23,05,39,7.10
2007,09,23,05,40,7.10
2007,09,23,05,41,7.10
2007,09,23,05,42,7.10
2007,09,23,05,43,7.10
2007,09,23,05,44,7.00
2007,09,23,05,45,7.00
2007,09,23,05,46,7.00
2007,09,23,05,47,7.00
2007,09,23,05,48,7.00
2007,09,23,05,49,7.00
2007,09,23,05,50,7.00
2007,09,23,05,51,7.00
2007,09,23,05,52,7.00
2007,09,23,05,53,7.00
2007,09,23,05,54,7.00
2007,09,23,05,55,7.00
2007,09,23,05,56,7.00
2007,09,23,05,57,7.00
2007,09,23,05,58,7.10
2007,09,23,05,59,7.10
2007,09,23,06,00,7.10
2007,09,23,06,01,7.10
2007,09,23,06,02,7.10
2007,09,23,06,03,7.10
2007,09,23,06,04,7.20
2007,09,23,06,05,7.20
2007,09,23,06,06,7.20
2007,09,23,06,07,7.20
2007,09,23,06,08,7.20
2007,09,23,06,09,7.20
2007,09,23,06,10,7.20
2007,09,23,06,11,7.30
2007,09,23,06,12,7.30
2007,09,23,06,13,7.30
2007,09,23,06,14,7.30
2007,09,23,06,15,7.30
2007,09,23,06,16,7.30
2007,09,23,06,17,7.30
2007,09,23,06,18,7.30
2007,09,23,06,19,7.30
2007,09,23,06,20,7.30
2007,09,23,06,21,7.30
2007,09,23,06,22,7.30
2007,09,23,06,23,7.30
2007,09,23,06,24,7.30
2007,09,23,06,25,7.30
2007,09,23,06,26,7.30
2007,09,23,06,27,7.30
2007,09,23,06,28,7.30
2007,09,23,06,29,7.30
2007,09,23,06,30,7.30
2007,09,23,06,31,7.30
2007,09,23,06,32,7.30
2007,09,23,06,33,7.30
2007,09,23,06,34,7.30
2007,09,23,06,35,7.30
2007,09,23,06,36,7.30
2007,09,23,06,37,7.30
2007,09,23,06,38,7.30
2007,09,23,06,39,7.30
2007,09,23,06,40,7.30
2007,09,23,06,41,7.30
2007,09,23,06,42,7.30
2007,09,23,06,43,7.20
2007,09,23,06,44,7.20
2007,09,23,06,45,7.20
2007,09,23,06,46,7.20
2007,09,23,06,47,7.20
2007,09,23,06,48,7.20
2007,09,23,06,49,7.20
2007,09,23,06,50,7.10
2007,09,23,06,51,7.10
2007,09,23,06,52,7.10
2007,09,23,06,53,7.10
2007,09,23,06,54,7.10
2007,09,23,06,55,7.10
2007,09,23,06,56,7.00
2007,09,23,06,57,7.00
2007,09,23,06,58,7.00
2007,09,23,06,59,7.00
2007,09,23,07,00,7.00
2007,09,23,07,01,7.00
2007,09,23,07,02,6.90
2007,09,23,07,03,6.90
2007,09,23,07,04,6.90
2007,09,23,07,05,6.90
2007,09,23,07,06,6.90
2007,09,23,07,07,6.90
2007,09,23,07,08,6.80
2007,09,23,07,09,6.80
2007,09,23,07,10,6.80
2007,09,23,07,11,6.80
2007,09,23,07,12,6.80
2007,09,23,07,13,6.80
2007,09,23,07,14,6.80
2007,09,23,07,15,6.80
2007,09,23,07,16,6.80
2007,09,23,07,17,6.80
2007,09,23,07,18,6.80
2007,09,23,07,19,6.80
2007,09,23,07,20,6.80
2007,09,23,07,21,6.80
2007,09,23,07,22,6.80
2007,09,23,07,23,6.80
2007,09,23,07,24,6.80
2007,09,23,07,25,6.80
2007,09,23,07,26,6.80
2007,09,23,07,27,6.80
2007,09,23,07,28,6.80
2007,09,23,07,29,6.80
2007,09,23,07,30,6.80
2007,09,23,07,31,6.80
2007,09,23,07,32,6.80
2007,09,23,07,33,6.80
2007,09,23,07,34,6.80
2007,09,23,07,35,6.80
2007,09,23,07,36,6.80
2007,09,23,07,37,6.80
2007,09,23,07,38,6.80
2007,09,23,07,39,6.80
2007,09,23,07,40,6.80
2007,09,23,07,41,6.70
2007,09,23,07,42,6.70
2007,09,23,07,43,6.60
2007,09,23,07,44,6.60
2007,09,23,07,45,6.60
2007,09,23,07,46,6.50
2007,09,23,07,47,6.40
2007,09,23,07,48,6.40
2007,09,23,07,49,6.40
2007,09,23,07,50,6.40
2007,09,23,07,51,6.30
2007,09,23,07,52,6.30
2007,09,23,07,53,6.20
2007,09,23,07,54,6.20
2007,09,23,07,55,6.20
2007,09,23,07,56,6.20
2007,09,23,07,57,6.20
2007,09,23,07,58,6.10
2007,09,23,07,59,6.10
2007,09,23,08,00,6.10
2007,09,23,08,01,6.00
2007,09,23,08,02,6.00
2007,09,23,08,03,6.00
2007,09,23,08,04,6.00
2007,09,23,08,05,5.90
2007,09,23,08,06,5.90
2007,09,23,08,07,5.90
2007,09,23,08,08,5.90
2007,09,23,08,09,5.90
2007,09,23,08,10,5.80
2007,09,23,08,11,5.80
2007,09,23,08,12,5.80
2007,09,23,08,13,5.80
2007,09,23,08,14,5.80
2007,09,23,08,15,5.80
2007,09,23,08,16,5.80
2007,09,23,08,17,5.80
2007,09,23,08,18,5.80
2007,09,23,08,19,5.80
2007,09,23,08,20,5.80
2007,09,23,08,21,5.80
2007,09,23,08,22,5.80
2007,09,23,08,23,5.80
2007,09,23,08,24,5.80
2007,09,23,08,25,5.90
2007,09,23,08,26,5.90
2007,09,23,08,27,6.00
2007,09,23,08,28,6.10
2007,09,23,08,29,6.10
2007,09,23,08,30,6.20
2007,09,23,08,31,6.20
2007,09,23,08,32,6.30
2007,09,23,08,33,6.30
2007,09,23,08,34,6.40
2007,09,23,08,35,6.40
2007,09,23,08,36,6.50
2007,09,23,08,37,6.60
2007,09,23,08,38,6.70
2007,09,23,08,39,6.80
2007,09,23,08,40,6.90
2007,09,23,08,41,7.00
2007,09,23,08,42,7.10
2007,09,23,08,43,7.20
2007,09,23,08,44,7.30
2007,09,23,08,45,7.30
2007,09,23,08,46,7.30
2007,09,23,08,47,7.30
2007,09,23,08,48,7.40
2007,09,23,08,49,7.40
2007,09,23,08,50,7.40
2007,09,23,08,51,7.40
2007,09,23,08,52,7.50
2007,09,23,08,53,7.50
2007,09,23,08,54,7.50
2007,09,23,08,55,7.60
2007,09,23,08,56,7.60
2007,09,23,08,57,7.70
2007,09,23,08,58,7.80
2007,09,23,08,59,7.80
2007,09,23,09,00,7.90
2007,09,23,09,01,8.00
2007,09,23,09,02,8.10
2007,09,23,09,03,8.20
2007,09,23,09,04,8.20
2007,09,23,09,05,8.20
2007,09,23,09,06,8.20
2007,09,23,09,07,8.20
2007,09,23,09,08,8.20
2007,09,23,09,09,8.20
2007,09,23,09,10,8.20
2007,09,23,09,11,8.20
2007,09,23,09,12,8.20
2007,09,23,09,13,8.20
2007,09,23,09,14,8.20
2007,09,23,09,15,8.30
2007,09,23,09,16,8.30
2007,09,23,09,17,8.40
2007,09,23,09,18,8.50
2007,09,23,09,19,8.50
2007,09,23,09,20,8.60
2007,09,23,09,21,8.70
2007,09,23,09,22,8.70
2007,09,23,09,23,8.70
2007,09,23,09,24,8.80
2007,09,23,09,25,8.90
2007,09,23,09,26,8.90
2007,09,23,09,27,9.00
2007,09,23,09,28,9.00
2007,09,23,09,29,9.10
2007,09,23,09,30,9.20
2007,09,23,09,31,9.40
2007,09,23,09,32,9.50
2007,09,23,09,33,9.70
2007,09,23,09,34,9.80
2007,09,23,09,35,9.90
2007,09,23,09,36,10.00
2007,09,23,09,37,10.20
2007,09,23,09,38,10.30
2007,09,23,09,39,10.40
2007,09,23,09,40,10.60
2007,09,23,09,41,10.70
2007,09,23,09,42,10.80
2007,09,23,09,43,10.90
2007,09,23,09,44,11.00
2007,09,23,09,45,11.10
2007,09,23,09,46,11.10
2007,09,23,09,47,11.20
2007,09,23,09,48,11.30
2007,09,23,09,49,11.40
2007,09,23,09,50,11.50
2007,09,23,09,51,11.60
2007,09,23,09,52,11.60
2007,09,23,09,53,11.60
2007,09,23,09,54,11.60
2007,09,23,09,55,11.70
2007,09,23,09,56,11.70
2007,09,23,09,57,11.80
2007,09,23,09,58,11.80
2007,09,23,09,59,11.90
2007,09,23,10,00,11.90
2007,09,23,10,01,12.00
2007,09,23,10,02,12.00
2007,09,23,10,03,12.00
2007,09,23,10,04,12.00
2007,09,23,10,05,12.00
2007,09,23,10,06,12.10
2007,09,23,10,07,12.10
2007,09,23,10,08,12.20
2007,09,23,10,09,12.20
2007,09,23,10,10,12.20
2007,09,23,10,11,12.30
2007,09,23,10,12,12.30
2007,09,23,10,13,12.30
2007,09,23,10,14,12.30
2007,09,23,10,15,12.30
2007,09,23,10,16,12.30
2007,09,23,10,17,12.30
2007,09,23,10,18,12.40
2007,09,23,10,19,12.40
2007,09,23,10,20,12.40
2007,09,23,10,21,12.40
2007,09,23,10,22,12.40
2007,09,23,10,23,12.50
2007,09,23,10,24,12.50
2007,09,23,10,25,12.50
2007,09,23,10,26,12.50
2007,09,23,10,27,12.60
2007,09,23,10,28,12.70
2007,09,23,10,29,12.70
2007,09,23,10,30,12.80
2007,09,23,10,31,12.80
2007,09,23,10,32,12.90
2007,09,23,10,33,13.00
2007,09,23,10,34,12.90
2007,09,23,10,35,12.90
2007,09,23,10,36,13.00
2007,09,23,10,37,13.00
2007,09,23,10,38,13.00
2007,09,23,10,39,13.10
2007,09,23,10,40,13.10
2007,09,23,10,41,13.10
2007,09,23,10,42,13.10
2007,09,23,10,43,13.20
2007,09,23,10,44,13.30
2007,09,23,10,45,13.30
2007,09,23,10,46,13.30
2007,09,23,10,47,13.30
2007,09,23,10,48,13.30
2007,09,23,10,49,13.30
2007,09,23,10,50,13.30
2007,09,23,10,51,13.30
2007,09,23,10,52,13.20
2007,09,23,10,53,13.20
2007,09,23,10,54,13.20
2007,09,23,10,55,13.30
2007,09,23,10,56,13.20
2007,09,23,10,57,13.20
2007,09,23,10,58,13.30
2007,09,23,10,59,13.30
2007,09,23,11,00,13.30
2007,09,23,11,01,13.30
2007,09,23,11,02,13.30
2007,09,23,11,03,13.30
2007,09,23,11,04,13.30
2007,09,23,11,05,13.30
2007,09,23,11,06,13.30
2007,09,23,11,07,13.30
2007,09,23,11,08,13.30
2007,09,23,11,09,13.30
2007,09,23,11,10,13.40
2007,09,23,11,11,13.50
2007,09,23,11,12,13.50
2007,09,23,11,13,13.60
2007,09,23,11,14,13.50
2007,09,23,11,15,13.50
2007,09,23,11,16,13.40
2007,09,23,11,17,13.40
2007,09,23,11,18,13.50
2007,09,23,11,19,13.60
2007,09,23,11,20,13.60
2007,09,23,11,21,13.70
2007,09,23,11,22,13.70
2007,09,23,11,23,13.70
2007,09,23,11,24,13.70
2007,09,23,11,25,13.80
2007,09,23,11,26,13.80
2007,09,23,11,27,13.90
2007,09,23,11,28,13.90
2007,09,23,11,29,14.00
2007,09,23,11,30,14.10
2007,09,23,11,31,14.10
2007,09,23,11,32,14.10
2007,09,23,11,33,14.10
2007,09,23,11,34,14.10
2007,09,23,11,35,14.00
2007,09,23,11,36,14.00
2007,09,23,11,37,14.00
2007,09,23,11,38,14.00
2007,09,23,11,39,14.10
2007,09,23,11,40,14.10
2007,09,23,11,41,14.10
2007,09,23,11,42,14.10
2007,09,23,11,43,14.00
2007,09,23,11,44,14.10
2007,09,23,11,45,14.10
2007,09,23,11,46,14.00
2007,09,23,11,47,14.00
2007,09,23,11,48,13.90
2007,09,23,11,49,14.00
2007,09,23,11,50,14.10
2007,09,23,11,51,14.10
2007,09,23,11,52,14.10
2007,09,23,11,53,14.00
2007,09,23,11,54,13.90
2007,09,23,11,55,13.90
2007,09,23,11,56,13.90
2007,09,23,11,57,13.90
2007,09,23,11,58,13.90
2007,09,23,11,59,13.90
2007,09,23,12,00,14.00
2007,09,23,12,01,14.00
2007,09,23,12,02,14.00
2007,09,23,12,03,14.10
2007,09,23,12,04,14.20
2007,09,23,12,05,14.20
2007,09,23,12,06,14.20
2007,09,23,12,07,14.20
2007,09,23,12,08,14.20
2007,09,23,12,09,14.20
2007,09,23,12,10,14.20
2007,09,23,12,11,14.20
2007,09,23,12,12,14.20
2007,09,23,12,13,14.20
2007,09,23,12,14,14.20
2007,09,23,12,15,14.20
2007,09,23,12,16,14.20
2007,09,23,12,17,14.20
2007,09,23,12,18,14.20
2007,09,23,12,19,14.20
2007,09,23,12,20,14.20
2007,09,23,12,21,14.20
2007,09,23,12,22,14.20
2007,09,23,12,23,14.20
2007,09,23,12,24,14.20
2007,09,23,12,25,14.20
2007,09,23,12,26,14.20
2007,09,23,12,27,14.20
2007,09,23,12,28,14.20
2007,09,23,12,29,14.20
2007,09,23,12,30,14.20
2007,09,23,12,31,14.20
2007,09,23,12,32,14.20
2007,09,23,12,33,14.20
2007,09,23,12,34,14.20
2007,09,23,12,35,14.30
2007,09,23,12,36,14.40
2007,09,23,12,37,14.40
2007,09,23,12,38,14.40
2007,09,23,12,39,14.40
2007,09,23,12,40,14.40
2007,09,23,12,41,14.40
2007,09,23,12,42,14.40
2007,09,23,12,43,14.40
2007,09,23,12,44,14.30
2007,09,23,12,45,14.30
2007,09,23,12,46,14.20
2007,09,23,12,47,14.20
2007,09,23,12,48,14.20
2007,09,23,12,49,14.20
2007,09,23,12,50,14.10
2007,09,23,12,51,14.10
2007,09,23,12,52,14.00
2007,09,23,12,53,14.00
2007,09,23,12,54,14.00
2007,09,23,12,55,13.90
2007,09,23,12,56,13.80
2007,09,23,12,57,13.80
2007,09,23,12,58,13.80
2007,09,23,12,59,13.70
2007,09,23,13,00,13.70
2007,09,23,13,01,13.70
2007,09,23,13,02,13.70
2007,09,23,13,03,13.70
2007,09,23,13,04,13.70
2007,09,23,13,05,13.70
2007,09,23,13,06,13.70
2007,09,23,13,07,13.60
2007,09,23,13,08,13.60
2007,09,23,13,09,13.60
2007,09,23,13,10,13.60
2007,09,23,13,11,13.70
2007,09,23,13,12,13.70
2007,09,23,13,13,13.70
2007,09,23,13,14,13.70
2007,09,23,13,15,13.70
2007,09,23,13,16,13.70
2007,09,23,13,17,13.70
2007,09,23,13,18,13.80
2007,09,23,13,19,13.80
2007,09,23,13,20,13.90
2007,09,23,13,21,14.00
2007,09,23,13,22,14.10
2007,09,23,13,23,14.20
2007,09,23,13,24,14.30
2007,09,23,13,25,14.50
2007,09,23,13,26,14.60
2007,09,23,13,27,14.70
2007,09,23,13,28,14.80
2007,09,23,13,29,14.90
2007,09,23,13,30,15.00
2007,09,23,13,31,15.10
2007,09,23,13,32,15.10
2007,09,23,13,33,15.20
2007,09,23,13,34,15.30
2007,09,23,13,35,15.30
2007,09,23,13,36,15.30
2007,09,23,13,37,15.30
2007,09,23,13,38,15.30
2007,09,23,13,39,15.40
2007,09,23,13,40,15.40
2007,09,23,13,41,15.50
2007,09,23,13,42,15.60
2007,09,23,13,43,15.70
2007,09,23,13,44,15.70
2007,09,23,13,45,15.80
2007,09,23,13,46,15.90
2007,09,23,13,47,16.00
2007,09,23,13,48,16.10
2007,09,23,13,49,16.10
2007,09,23,13,50,16.10
2007,09,23,13,51,16.10
2007,09,23,13,52,16.10
2007,09,23,13,53,16.10
2007,09,23,13,54,16.10
2007,09,23,13,55,16.10
2007,09,23,13,56,15.90
2007,09,23,13,57,15.90
2007,09,23,13,58,15.90
2007,09,23,13,59,16.10
2007,09,23,14,00,16.10
2007,09,23,14,01,16.10
2007,09,23,14,02,16.10
2007,09,23,14,03,16.10
2007,09,23,14,04,16.10
2007,09,23,14,05,16.20
2007,09,23,14,06,16.30
2007,09,23,14,07,16.30
2007,09,23,14,08,16.30
2007,09,23,14,09,16.30
2007,09,23,14,10,16.20
2007,09,23,14,11,16.10
2007,09,23,14,12,16.10
2007,09,23,14,13,15.90
2007,09,23,14,14,15.80
2007,09,23,14,15,15.70
2007,09,23,14,16,15.70
2007,09,23,14,17,15.60
2007,09,23,14,18,15.60
2007,09,23,14,19,15.60
2007,09,23,14,20,15.50
2007,09,23,14,21,15.50
2007,09,23,14,22,15.50
2007,09,23,14,23,15.50
2007,09,23,14,24,15.50
2007,09,23,14,25,15.50
2007,09,23,14,26,15.60
2007,09,23,14,27,15.70
2007,09,23,14,28,15.70
2007,09,23,14,29,15.80
2007,09,23,14,30,15.80
2007,09,23,14,31,15.90
2007,09,23,14,32,16.00
2007,09,23,14,33,16.10
2007,09,23,14,34,16.10
2007,09,23,14,35,16.10
2007,09,23,14,36,16.10
2007,09,23,14,37,16.10
2007,09,23,14,38,16.10
2007,09,23,14,39,16.10
2007,09,23,14,40,16.10
2007,09,23,14,41,16.10
2007,09,23,14,42,16.10
2007,09,23,14,43,16.10
2007,09,23,14,44,16.20
2007,09,23,14,45,16.20
2007,09,23,14,46,16.20
2007,09,23,14,47,16.20
2007,09,23,14,48,16.10
2007,09,23,14,49,16.10
2007,09,23,14,50,16.10
2007,09,23,14,51,16.00
2007,09,23,14,52,15.90
2007,09,23,14,53,15.90
2007,09,23,14,54,15.80
2007,09,23,14,55,15.70
2007,09,23,14,56,15.60
2007,09,23,14,57,15.60
2007,09,23,14,58,15.50
2007,09,23,14,59,15.50
2007,09,23,15,00,15.40
2007,09,23,15,01,15.40
2007,09,23,15,02,15.30
2007,09,23,15,03,15.30
2007,09,23,15,04,15.30
2007,09,23,15,05,15.30
2007,09,23,15,06,15.30
2007,09,23,15,07,15.30
2007,09,23,15,08,15.20
2007,09,23,15,09,15.20
2007,09,23,15,10,15.20
2007,09,23,15,11,15.10
2007,09,23,15,12,15.00
2007,09,23,15,13,15.00
2007,09,23,15,14,14.90
2007,09,23,15,15,14.90
2007,09,23,15,16,14.90
2007,09,23,15,17,14.90
2007,09,23,15,18,14.90
2007,09,23,15,19,14.90
2007,09,23,15,20,14.90
2007,09,23,15,21,14.90
2007,09,23,15,22,14.80
2007,09,23,15,23,14.90
2007,09,23,15,24,14.90
2007,09,23,15,25,14.90
2007,09,23,15,26,14.90
2007,09,23,15,27,15.00
2007,09,23,15,28,15.10
2007,09,23,15,29,15.10
2007,09,23,15,30,15.20
2007,09,23,15,31,15.20
2007,09,23,15,32,15.20
2007,09,23,15,33,15.20
2007,09,23,15,34,15.20
2007,09,23,15,35,15.20
2007,09,23,15,36,15.20
2007,09,23,15,37,15.20
2007,09,23,15,38,15.20
2007,09,23,15,39,15.20
2007,09,23,15,40,15.20
2007,09,23,15,41,15.10
2007,09,23,15,42,15.20
2007,09,23,15,43,15.20
2007,09,23,15,44,15.10
2007,09,23,15,45,15.10
2007,09,23,15,46,15.10
2007,09,23,15,47,15.10
2007,09,23,15,48,15.10
2007,09,23,15,49,15.20
2007,09,23,15,50,15.20
2007,09,23,15,51,15.20
2007,09,23,15,52,15.30
2007,09,23,15,53,15.30
2007,09,23,15,54,15.30
2007,09,23,15,55,15.30
2007,09,23,15,56,15.30
2007,09,23,15,57,15.30
2007,09,23,15,58,15.30
2007,09,23,15,59,15.30
2007,09,23,16,00,15.30
2007,09,23,16,01,15.30
2007,09,23,16,02,15.30
2007,09,23,16,03,15.30
2007,09,23,16,04,15.30
2007,09,23,16,05,15.30
2007,09,23,16,06,15.30
2007,09,23,16,07,15.20
2007,09,23,16,08,15.20
2007,09,23,16,09,15.10
2007,09,23,16,10,15.00
2007,09,23,16,11,15.00
2007,09,23,16,12,14.90
2007,09,23,16,13,14.90
2007,09,23,16,14,14.80
2007,09,23,16,15,14.80
2007,09,23,16,16,14.80
2007,09,23,16,17,14.70
2007,09,23,16,18,14.70
2007,09,23,16,19,14.70
2007,09,23,16,20,14.60
2007,09,23,16,21,14.60
2007,09,23,16,22,14.60
2007,09,23,16,23,14.50
2007,09,23,16,24,14.50
2007,09,23,16,25,14.40
2007,09,23,16,26,14.40
2007,09,23,16,27,14.40
2007,09,23,16,28,14.30
2007,09,23,16,29,14.30
2007,09,23,16,30,14.30
2007,09,23,16,31,14.30
2007,09,23,16,32,14.30
2007,09,23,16,33,14.30
2007,09,23,16,34,14.30
2007,09,23,16,35,14.30
2007,09,23,16,36,14.20
2007,09,23,16,37,14.20
2007,09,23,16,38,14.20
2007,09,23,16,39,14.20
2007,09,23,16,40,14.20
2007,09,23,16,41,14.20
2007,09,23,16,42,14.20
2007,09,23,16,43,14.20
2007,09,23,16,44,14.20
2007,09,23,16,45,14.10
2007,09,23,16,46,14.00
2007,09,23,16,47,14.00
2007,09,23,16,48,14.00
2007,09,23,16,49,13.90
2007,09,23,16,50,13.90
2007,09,23,16,51,13.90
2007,09,23,16,52,13.90
2007,09,23,16,53,13.80
2007,09,23,16,54,13.80
2007,09,23,16,55,13.70
2007,09,23,16,56,13.70
2007,09,23,16,57,13.70
2007,09,23,16,58,13.70
2007,09,23,16,59,13.70
2007,09,23,17,00,13.70
2007,09,23,17,01,13.70
2007,09,23,17,02,13.70
2007,09,23,17,03,13.60
2007,09,23,17,04,13.60
2007,09,23,17,05,13.60
2007,09,23,17,06,13.50
2007,09,23,17,07,13.50
2007,09,23,17,08,13.40
2007,09,23,17,09,13.40
2007,09,23,17,10,13.40
2007,09,23,17,11,13.30
2007,09,23,17,12,13.30
2007,09,23,17,13,13.30
2007,09,23,17,14,13.30
2007,09,23,17,15,13.30
2007,09,23,17,16,13.30
2007,09,23,17,17,13.30
2007,09,23,17,18,13.20
2007,09,23,17,19,13.20
2007,09,23,17,20,13.20
2007,09,23,17,21,13.20
2007,09,23,17,22,13.20
2007,09,23,17,23,13.20
2007,09,23,17,24,13.20
2007,09,23,17,25,13.20
2007,09,23,17,26,13.20
2007,09,23,17,27,13.10
2007,09,23,17,28,13.10
2007,09,23,17,29,13.10
2007,09,23,17,30,13.10
2007,09,23,17,31,13.10
2007,09,23,17,32,13.00
2007,09,23,17,33,13.00
2007,09,23,17,34,12.90
2007,09,23,17,35,12.90
2007,09,23,17,36,12.90
2007,09,23,17,37,12.80
2007,09,23,17,38,12.80
2007,09,23,17,39,12.80
2007,09,23,17,40,12.80
2007,09,23,17,41,12.70
2007,09,23,17,42,12.70
2007,09,23,17,43,12.70
2007,09,23,17,44,12.70